Contract 0x0000a26b00c1f0df003000390027140000faa719 10

 

Contract Overview

Balance:
47.086859405216538344 ETH

ETH Value:
$77,424.45 (@ $1,644.29/ETH)

Token:

Txn Hash Method
Block
From
To
Value [Txn Fee]
Latest 25 internal transaction
Parent Txn Hash Block From To Value
0xaabdbdd3e8c3d7fd3cf11f3837f011b49bf9b4878754d3620d35e9d31ce2dcb8572653242023-02-01 22:20:004 mins ago Seaport 1.1 0x0000a26b00c1f0df003000390027140000faa7190.0003195 ETH
0x27968967ee49ba4460fbdfd0cf645af02ade9d73799acf9dd9337e90774bea9f572652972023-02-01 22:19:534 mins ago Seaport 1.1 0x0000a26b00c1f0df003000390027140000faa7190.000007 ETH
0xaa8231c9c6ac984c61df01114b1224b8144b3602a0f064cf983bdf5895d20e93572642722023-02-01 22:14:2810 mins ago Seaport 1.1 0x0000a26b00c1f0df003000390027140000faa7190.00000325 ETH
0xd118ea494fd8f9010b891d6708471850b25fd6dcf3cbdc6a0f59218c4c32607b572642432023-02-01 22:14:1910 mins ago Seaport 1.1 0x0000a26b00c1f0df003000390027140000faa7190.00031875 ETH
0x16d43c80c2931ff270098735321e10e942529319c6223bd50f9af086248e9160572636832023-02-01 22:10:5913 mins ago Seaport 1.1 0x0000a26b00c1f0df003000390027140000faa7190.0000525 ETH
0x3095d29c9094c0da6cf28e51d3478340f96bf92deaa8866771e9f8e10a3880ec572621332023-02-01 22:02:2522 mins ago Seaport 1.1 0x0000a26b00c1f0df003000390027140000faa7190.00000665 ETH
0xb8fa13768419a243790399a314508230579a65d19880253fbfd6d5cf0faaa205572616292023-02-01 21:59:5024 mins ago Seaport 1.1 0x0000a26b00c1f0df003000390027140000faa7190.000007 ETH
0x03bfa4be87977c01342ab103c0aa6d4bea513b96ef03cd5dba5c250c7e85a260572611082023-02-01 21:56:5627 mins ago Seaport 1.1 0x0000a26b00c1f0df003000390027140000faa7190.000001125 ETH
0x2098e048a7bedd0787f67fa601727596abcd67a66df12e5e39ae8a6c6ce03b03572587712023-02-01 21:44:0540 mins ago Seaport 1.1 0x0000a26b00c1f0df003000390027140000faa7190.009 ETH
0x80671345fa91d84e7871f040a9570962abca681b61d9909c30dc75e8c8717f88572575192023-02-01 21:36:5447 mins ago Seaport 1.1 0x0000a26b00c1f0df003000390027140000faa7190.00222 ETH
0xc4184017a181ff6e6a467cc53ae900804f69673ebf3c8babfc59d67731dd4d48572564782023-02-01 21:30:4454 mins ago Seaport 1.1 0x0000a26b00c1f0df003000390027140000faa7190.001875 ETH
0xe7c98de8ce7e2ad7d7df6beb60b37ac5773c93859fea53b64be120c571ef58b4572562282023-02-01 21:29:1255 mins ago Seaport 1.1 0x0000a26b00c1f0df003000390027140000faa7190.0003175 ETH
0xb682b21c0e431de1cc471197782780a5798834695a12bce4c4c32d025e54c293572560882023-02-01 21:28:1256 mins ago Seaport 1.1 0x0000a26b00c1f0df003000390027140000faa7190.00032 ETH
0x408389f640c401c4044a299a8f0fc35f23ed5695efb5b962965a8f2759600ea5572527522023-02-01 21:09:211 hr 15 mins ago Seaport 1.1 0x0000a26b00c1f0df003000390027140000faa7190.00000665 ETH
0x80b7864df81a9ae3d2ceb5711b53399b4fea5f37b006bebf8b379221f7805d5a572519142023-02-01 21:05:201 hr 19 mins ago Seaport 1.1 0x0000a26b00c1f0df003000390027140000faa7190.01225 ETH
0x08b64677f09c549026115dd831f06670c8283a41e25acb92b96bd16f748dfaf2572496212023-02-01 20:52:461 hr 32 mins ago Seaport 1.1 0x0000a26b00c1f0df003000390027140000faa7190.00004475 ETH
0xeb03aede4892d53f875df1e13af575252f33edf2325b622cbfd6d06396c1e4a7572468012023-02-01 20:37:271 hr 47 mins ago Seaport 1.1 0x0000a26b00c1f0df003000390027140000faa7190.000325 ETH
0x2e0be90b50d88a5e79a509b6f93ea5c453e9224f88e2afff886d4b3dedcba28c572456452023-02-01 20:32:021 hr 52 mins ago Seaport 1.1 0x0000a26b00c1f0df003000390027140000faa7190.000325 ETH
0x4fdd0421723b73b346651a6b884dc6af2c05cf640a26db9edf83ec9bf12fd82a572456012023-02-01 20:31:511 hr 52 mins ago Seaport 1.1 0x0000a26b00c1f0df003000390027140000faa7190.0001125 ETH
0x56aef6cb0a1cfd9ba8201818f8f8d4c3f317e406f053a2be3c878b2990b8f853572454112023-02-01 20:31:021 hr 53 mins ago Seaport 1.1 0x0000a26b00c1f0df003000390027140000faa7190.02475 ETH
0x8e98155ad329f973c25dae7aa456537de3d599e5cb42d7101c392439806dbf16572441482023-02-01 20:25:181 hr 59 mins ago Seaport 1.1 0x0000a26b00c1f0df003000390027140000faa7190.0000135 ETH
0x773db4460cff15e6bf84685a6a08513336995b66e568a150dd23198b98c0046b572441132023-02-01 20:25:081 hr 59 mins ago Seaport 1.1 0x0000a26b00c1f0df003000390027140000faa7190.000325 ETH
0x68f3262b8a3b5592ec13be61ab9ef7f3b8f6233da0f07e572e84ac830bd294b6572438892023-02-01 20:24:052 hrs ago Seaport 1.1 0x0000a26b00c1f0df003000390027140000faa7190.00000725 ETH
0xbf2cb01c75fb34857fecdd557729e8912a8b2820595b2bcd1c8a5cb781c80dda572437702023-02-01 20:23:292 hrs 1 min ago Seaport 1.1 0x0000a26b00c1f0df003000390027140000faa7190.00045 ETH
0x8a9841aff9abc328fa82c316897db95aef2640f026af52cafb5499ac231b48a8572437492023-02-01 20:23:232 hrs 1 min ago Seaport 1.1 0x0000a26b00c1f0df003000390027140000faa7190.000275 ETH
[ Download CSV Export 
Loading
Are you the contract creator? Verify and Publish your contract source code today!
This contract was created by the contract code at 0x0000000000ffe8b47b3e2130213b802212439497

Decompile ByteCode Is this a proxy?
0x60806040526004361015610018575b6100166103e4565b005b6000803560e01c63c4d66de81461002f575061000e565b346102245760207ffffffffffffffffffffffffffffffffffffffffffffffffffffffffffffffffc36011261022457808060043561006c81610227565b73939c8d89ebc11fa45e576215e2353673ad0ba18a32148015610207575b80156101ea575b80156101cd575b6100a19061024a565b604051907f5c60da1b00000000000000000000000000000000000000000000000000000000825260208260048173ffffffffffffffffffffffffffffffffffffffff7f0000000000000000000000000000000033ca97c0b4df29103dc8da00a967884f165afa9182156101c0575b8392610190575b506040517fc4d66de8000000000000000000000000000000000000000000000000000000006020820190815273ffffffffffffffffffffffffffffffffffffffff929092166024808301919091528152610171604482610305565b51915af461017d610378565b501561018857604051f35b3d81803e3d90fd5b6101b291925060203d81116101b9575b6101aa8183610305565b810190610353565b9038610116565b503d6101a0565b6101c861036b565b61010f565b5032733b52ad533687ce908ba0485ac177c5fb4297296214610098565b507386d26897267711ea4b173c8c124a0a73612001da3214610091565b5073e80a65eb7a3018deda407e621ef5fb5b416678ca321461008a565b80fd5b73ffffffffffffffffffffffffffffffffffffffff81160361024557565b600080fd5b1561025157565b60846040517f08c379a000000000000000000000000000000000000000000000000000000000815260206004820152603460248201527f496e697469616c697a65206d757374206f726967696e6174652066726f6d206160448201527f6e20617070726f766564206465706c6f7965722e0000000000000000000000006064820152fd5b507f4e487b7100000000000000000000000000000000000000000000000000000000600052604160045260246000fd5b90601f7fffffffffffffffffffffffffffffffffffffffffffffffffffffffffffffffe0910116810190811067ffffffffffffffff82111761034657604052565b61034e6102d5565b604052565b90816020910312610245575161036881610227565b90565b506040513d6000823e3d90fd5b3d156103df573d9067ffffffffffffffff82116103d2575b604051916103c660207fffffffffffffffffffffffffffffffffffffffffffffffffffffffffffffffe0601f8401160184610305565b82523d6000602084013e565b6103da6102d5565b610390565b606090565b34156103ec57565b6000806040517f5c60da1b00000000000000000000000000000000000000000000000000000000815260208160048173ffffffffffffffffffffffffffffffffffffffff7f0000000000000000000000000000000033ca97c0b4df29103dc8da00a967884f165afa90811561049f575b8291610481575b50368280378136915af43d6000803e1561047c573d6000f35b3d6000fd5b610499915060203d81116101b9576101aa8183610305565b83610463565b6104a761036b565b61045c56fea264697066735822122022a6f8a80a3410719e8504e9b42af008259446db5cdbc3acc5d20ff3f8f338a464736f6c634300080e0033 
Block Transaction Gas Used Reward
Age Block Fee Address BC Fee Address Voting Power Jailed Incoming
Block Uncle Number Difficulty Gas Used Reward
Loading
Make sure to use the "Vote Down" button for any spammy posts, and the "Vote Up" for interesting conversations.